{"data":{"norad_id":62833,"epoch":"2026-09-21T02:54:12.024000Z","epoch_age_seconds":114494,"freshness":"FRESH","line1":"1 62833U 25019E   26264.12097250  .00138559  00000+0  10655-2 0  9994","line2":"2 62833  43.0007 208.2896 0001886 245.9346 114.1324 15.70837274 94619","mean_motion":15.70837274,"eccentricity":0.0001886,"inclination_deg":43.0007,"raan_deg":208.2896,"arg_perigee_deg":245.9346,"mean_anomaly_deg":114.1324,"bstar":0.0010655,"rev_number":9461,"period_min":91.670857563315,"perigee_km":355.23269992174,"apogee_km":357.77300607429,"semimajor_km":6734.639852998,"source":"CELESTRAK","updated_at":"2026-09-22T09:00:49.671798Z"}}